User: anonymous   Login
Location: Santa Barbara
(34.4500°N, 119.7700°W)
Time: 19:37:08
(UTC-07:00)
Language:

Cosmos 1626 Rocket - Orbit

View from above orbital plane
View from above orbital plane
View from above satellite
View from above satellite

Ground track
Ground track

The orbit data is extracted from the following two-line orbital elements,

1 15495U 85009B   16146.53802050  .00000125  00000-0  12153-4 0  9991
2 15495  82.5247 190.5501 0020589 164.7681 195.4158 14.83706083692484
Epoch (UTC): 25 May 2016 12:54:44
Eccentricity: 0.0020589
inclination: 82.5247°
perigee height: 603 km
apogee height: 632 km
right ascension of ascending node: 190.5501°
argument of perigee: 164.7681°
revolutions per day: 14.83706083
mean anomaly at epoch: 195.4158°
orbit number at epoch: 69248

The dashed part of the orbit path shows where the satellite is in the earth's shadow,  

DLR